Regional Weather Roundup
Issued by NWS

Home | Current Version | Previous Version | Text Only | Print | Product List | Glossary Off
Versions: 1 2 3 4 5 6 7 8 9 10 11 12 13 14 15 16 17 18 19 20 21 22 23 24 25 26 27 28 29 30 31 32 33 34 35 36 37 38 39 40 41 42 43 44 45 46 47 48 49 50

000
ASUS43 KTOP 041159
RWRKS

WEATHER ROUNDUP FOR KANSAS
NATIONAL WEATHER SERVICE GOODLAND KS
700 AM CDT FRI SEP 04 2015

NOTE:  "FAIR" INDICATES FEW OR NO CLOUDS BELOW 12,000 FEET WITH NO
SIGNIFICANT WEATHER AND/OR OBSTRUCTIONS TO VISIBILITY.

KSZ001>006-013>018-027>032-041>047-041300-
NORTHWEST KANSAS

CITY           SKY/WX    TMP DP  RH WIND       PRES   REMARKS
GOODLAND       PTCLDY    61  53  75 W8        29.87R
6HR MIN TEMP:  61; 6HR MAX TEMP:  70;

HAYS           PTCLDY    75  57  53 S17G23    29.84S
HILL CITY      CLEAR     73  59  61 S7        29.82R
6HR MIN TEMP:  73; 6HR MAX TEMP:  83;

RUSSELL        PTCLDY    76  61  59 S21       29.84S
6HR MIN TEMP:  75; 6HR MAX TEMP:  80;

$$

KSZ061>065-074>080-084>089-041300-
SOUTHWEST KANSAS

CITY           SKY/WX    TMP DP  RH WIND       PRES   REMARKS
DODGE CITY     CLEAR     69  58  67 S14       29.89R
6HR MIN TEMP:  69; 6HR MAX TEMP:  76;

ELKHART          N/A     68  52  56 W8          N/A
GARDEN CITY    CLEAR     66  58  75 SE5       29.86R
6HR MIN TEMP:  66; 6HR MAX TEMP:  76;

GREAT BEND     PTCLDY    73  59  60 S21       29.87R
LIBERAL        PTCLDY    68  54  60 SE9       29.90S
$$

KSZ066>073-081>083-090>101-041300-
SOUTHEAST KANSAS

CITY           SKY/WX    TMP DP  RH WIND       PRES   REMARKS
CHANUTE        PTCLDY    70  67  90 SE7       29.96R
6HR MIN TEMP:  69; 6HR MAX TEMP:  74;

COFFEYVILLE    PTCLDY    70  67  90 SE6       29.95R
6HR MIN TEMP:  69; 6HR MAX TEMP:  74;

HUTCHINSON     CLEAR     72  62  71 SE7       29.92R
6HR MIN TEMP:  72; 6HR MAX TEMP:  78;

NEWTON         CLEAR     70  61  73 S9        29.95S
PARSONS        PTCLDY    71  68  90 SE3       29.97R
6HR MIN TEMP:  71; 6HR MAX TEMP:  76;

WICHITA INTL   MOCLDY    70  63  78 S9        29.92R
6HR MIN TEMP:  70; 6HR MAX TEMP:  77;

WICHITA JABRA  CLEAR     69  64  84 S8        29.93R
6HR MIN TEMP:  69; 6HR MAX TEMP:  77;

WINFIELD       CLEAR     70  64  81 SE5       29.95R
6HR MIN TEMP:  70; 6HR MAX TEMP:  76;

$$

KSZ007>012-019>026-033>040-048>060-102>105-041300-
NORTHEAST KANSAS

CITY           SKY/WX    TMP DP  RH WIND       PRES   REMARKS
CONCORDIA      MOCLDY    74  64  71 SE8       29.89R
6HR MIN TEMP:  74; 6HR MAX TEMP:  77;

EMPORIA        CLEAR     69  67  93 S9        29.94R
6HR MIN TEMP:  69; 6HR MAX TEMP:  74;

LAWRENCE       PTCLDY    70  67  90 E7        29.95R
6HR MIN TEMP:  69; 6HR MAX TEMP:  72;

MANHATTAN      PTCLDY    73  66  78 CALM      29.91R
6HR MIN TEMP:  72; 6HR MAX TEMP:  79;

OLATHE IND     PTCLDY    70  67  90 S7        29.96R
6HR MIN TEMP:  70; 6HR MAX TEMP:  73;

OLATHE EXE     PTCLDY    69  67  93 S5        29.96R
6HR MIN TEMP:  69; 6HR MAX TEMP:  72;

SALINA         PTCLDY    75  63  66 S12       29.89R
6HR MIN TEMP:  75; 6HR MAX TEMP:  81;

TOPEKA BILLARD MOCLDY    73  67  81 S3        29.94R
6HR MIN TEMP:  73; 6HR MAX TEMP:  76;

TOPEKA FORBES  MOCLDY    72  67  84 S7        29.94R
6HR MIN TEMP:  72; 6HR MAX TEMP:  74;

$$


USA.gov is the U.S. government's official web portal to all federal, state and local government web resources and services.